Theta_e
292 286 282 283 284 285 285 283 282 285 287 284 284 283 284 286 287 285 286 287 289 290 292 294 295 294 296 298 298 298 297 297 296 294 293 293 292 293 293 294 296 295 294 294
288 283 287 289 289 287 286 282 281 285 287 284 282 281 284 286 285 285 285 286 288 289 291 293 295 295 296 297 297 297 297 297 296 296 295 295 294 294 295 295 295 295 295 295
285 285 289 289 284 285 281 280 279 280 283 284 281 279 282 284 286 286 286 286 287 288 289 291 293 293 295 295 295 297 297 297 297 297 295 293 293 292 292 293 293 294 295 294
284 288 288 285 282 283 281 282 282 280 275 274 279 269 278 281 282 284 284 284 284 286 289 291 292 292 293 294 295 297 297 297 297 296 294 292 291 290 291 292 293 293 294 293
282 282 282 281 282 284 280 283 280 279 271 270 273 267 275 281 279 281 282 284 284 285 287 289 291 292 293 293 292 294 296 296 296 295 294 292 292 292 292 291 291 291 292 292
282 286 284 282 284 283 284 279 279 277 271 264 265 269 274 277 280 280 282 283 285 285 286 287 289 290 289 289 290 291 293 294 295 294 294 293 291 291 290 290 290 290 291 291
281 280 283 285 280 283 280 272 265 269 265 266 262 268 273 279 281 282 281 282 283 285 285 285 286 286 287 287 288 290 290 290 290 291 291 291 290 290 289 290 289 289 290 290
270 271 278 283 280 278 277 272 268 261 265 268 263 266 274 280 282 283 283 283 284 284 285 285 285 286 286 286 286 287 287 288 289 289 289 289 289 289 289 289 289 289 289 290
271 274 280 281 281 279 276 268 276 263 257 262 267 273 278 279 278 281 281 281 281 283 284 283 284 284 284 284 284 284 285 285 287 287 287 288 288 288 287 288 289 289 290 291
277 268 275 280 281 279 276 278 267 266 259 258 265 263 273 272 273 274 278 277 278 280 282 283 284 284 284 284 283 283 284 284 285 285 285 287 287 287 287 287 287 288 289 290
277 270 271 277 270 270 271 269 270 270 271 263 261 269 273 271 272 274 274 277 272 273 279 281 282 284 284 283 282 282 283 283 283 284 284 284 285 285 285 285 286 286 288 288
280 278 268 272 278 279 278 274 275 267 263 265 268 268 272 273 273 274 275 275 273 272 274 274 280 282 282 283 282 281 281 281 282 283 283 283 284 284 283 284 284 285 286 287
280 270 262 269 273 277 274 277 277 272 275 265 266 271 269 269 268 269 273 272 274 271 270 272 276 277 279 280 280 281 281 281 282 282 282 282 282 282 282 283 284 284 284 285
284 278 268 267 269 271 270 275 277 275 266 270 272 273 271 271 270 270 272 271 272 271 271 271 273 274 275 276 276 278 279 280 280 280 280 280 280 281 282 283 283 283 283 283
280 267 274 272 273 271 271 269 274 272 274 273 275 274 276 275 276 276 275 269 269 274 270 270 269 271 272 273 275 275 275 277 278 277 277 278 280 280 281 282 282 282 282 282
280 266 268 265 275 276 272 274 273 276 277 276 277 276 277 269 268 270 272 270 269 272 274 273 272 271 273 273 274 275 275 277 274 275 276 277 276 278 278 280 281 281 281 281
273 266 261 261 268 265 265 267 272 272 269 276 272 276 268 267 267 270 273 269 271 273 270 271 272 272 271 272 274 273 275 275 273 274 275 275 275 276 277 278 279 279 280 280
272 266 260 262 260 256 272 274 274 273 274 273 272 269 268 268 267 269 268 271 271 270 270 271 272 269 271 271 269 271 271 272 272 273 273 275 274 274 276 277 278 279 279 278
280 271 262 261 252 265 273 273 273 272 272 276 277 273 273 272 275 275 276 274 273 272 274 274 274 273 270 272 274 266 270 269 270 272 273 275 273 273 273 274 277 278 278 278
277 279 272 257 256 256 270 273 276 276 269 275 277 276 275 275 269 272 278 279 279 280 280 279 279 278 278 278 278 275 274 273 276 277 276 275 274 273 272 273 276 278 278 278
265 270 270 268 265 265 274 276 276 265 271 275 276 277 275 273 275 276 278 278 279 279 278 278 278 277 278 278 278 278 277 275 279 280 278 276 274 273 272 273 276 276 276 276
266 265 265 265 265 262 275 274 271 276 276 276 275 275 276 276 276 277 277 277 278 277 278 278 277 278 279 279 278 278 277 279 279 279 278 278 277 277 278 275 276 276 276 274
267 271 266 268 269 276 276 276 277 277 277 276 276 277 277 276 276 277 276 277 278 278 279 279 277 278 279 278 278 277 279 279 278 275 276 276 276 276 277 275 275 275 275 274
272 273 269 269 273 277 278 278 278 278 278 278 278 277 277 276 276 275 275 275 275 276 275 275 274 275 276 278 277 277 278 277 275 275 276 276 275 275 274 275 275 274 273 273
273 270 266 268 273 274 275 277 278 279 279 277 277 277 278 277 277 276 275 274 274 275 273 273 274 275 276 277 276 276 277 275 273 275 275 276 276 274 273 273 273 273 274 274
274 274 271 271 277 276 276 277 277 276 276 278 277 276 277 277 277 276 274 274 274 274 275 274 275 274 275 275 275 275 276 273 274 275 276 276 275 274 272 271 271 275 276 278
Wind_Speed
4 8 3 1 2 1 2 1 2 3 1 2 1 2 3 3 8 8 7 7 8 7 5 7 7 6 2 7 8 10 9 7 5 2 3 2 1 1 1 3 4 4 3 2
7 4 2 3 4 3 5 3 2 1 2 3 5 4 1 4 4 6 7 7 7 6 7 7 9 8 7 5 6 7 7 7 4 3 1 1 2 2 2 3 4 5 5 4
5 1 4 3 6 5 4 3 2 1 7 2 5 4 3 2 6 8 7 5 5 6 6 6 8 8 8 7 5 6 7 8 6 5 3 1 2 2 1 1 2 4 6 5
5 5 3 5 4 3 2 3 2 3 5 3 4 6 5 5 5 5 6 7 6 6 6 6 7 7 8 7 7 7 6 7 5 6 3 2 2 2 3 3 3 4 6 5
3 3 5 5 1 2 2 3 4 3 4 5 5 5 8 8 4 4 5 6 6 6 7 6 7 7 7 7 7 6 7 6 4 4 3 2 2 2 2 2 2 3 4 6
2 1 3 1 2 3 3 4 7 4 4 4 5 5 6 7 8 5 4 6 7 7 7 7 7 7 7 8 8 7 6 4 3 2 0 1 2 4 3 3 4 4 4 4
4 2 3 4 2 4 6 6 5 6 5 7 4 2 11 2 6 8 8 7 6 6 6 6 7 6 6 7 7 6 7 6 6 6 5 4 3 3 5 5 4 5 3 3
4 7 3 6 3 2 1 6 7 6 2 5 4 7 7 4 8 9 8 7 6 6 5 5 5 5 6 6 7 7 7 6 7 6 6 5 4 3 3 4 4 4 3 4
4 4 1 4 3 3 3 1 2 8 2 5 4 7 5 3 5 7 8 7 4 3 3 4 4 4 5 5 6 5 6 6 6 6 5 5 5 5 5 6 5 4 5 5
2 3 2 3 1 2 5 1 5 4 1 5 7 7 8 8 9 4 8 7 4 1 0 1 2 3 2 4 4 5 5 5 5 6 6 5 6 5 6 5 6 6 6 6
4 6 6 3 3 7 2 2 2 3 4 6 2 9 6 9 9 11 8 7 7 6 5 3 4 4 3 1 4 5 5 5 5 6 6 6 6 6 6 6 6 6 6 7
2 5 3 9 3 2 3 6 5 6 7 3 2 13 2 7 8 9 9 8 6 6 5 5 4 3 3 4 4 4 4 5 5 6 6 6 6 6 6 6 7 6 7 8
3 2 4 8 4 4 4 5 4 3 2 7 5 11 2 4 2 5 9 8 7 4 4 4 4 4 4 5 6 6 5 6 6 6 6 6 6 6 7 7 7 6 8 9
1 3 8 9 9 5 4 5 6 6 3 4 13 13 5 6 7 6 8 7 6 6 6 4 5 6 5 5 6 6 7 5 6 6 6 7 7 7 7 8 8 8 8 9
3 5 1 5 9 6 6 5 10 11 11 10 26 14 10 12 15 16 9 4 4 7 6 6 5 5 5 7 7 5 6 7 5 6 6 8 8 7 8 8 8 9 8 9
1 4 3 7 8 6 8 10 11 17 20 18 23 29 7 2 4 5 9 7 7 8 8 7 6 6 8 8 8 7 7 9 4 7 8 8 7 8 8 9 10 9 9 9
4 4 4 8 4 6 9 11 18 8 3 12 16 19 4 1 4 6 9 7 9 9 7 8 9 9 8 8 8 7 8 7 7 8 9 8 7 8 9 8 9 10 11 10
5 4 3 6 6 1 11 5 7 13 10 10 6 6 5 5 5 6 6 8 9 8 8 9 8 7 8 6 6 6 6 7 7 9 8 8 7 8 9 8 10 12 10 10
2 4 2 2 5 9 10 2 5 7 9 9 18 5 5 2 2 6 7 8 8 7 8 8 7 7 6 7 9 4 7 6 7 9 9 9 8 8 7 7 9 11 10 11
1 3 4 3 3 8 5 2 2 3 10 3 5 7 7 6 2 4 3 5 8 9 7 7 8 6 6 8 7 4 8 7 11 10 10 8 7 7 7 7 10 11 11 12
2 3 14 9 6 11 10 6 1 5 7 1 2 6 8 6 4 3 3 4 5 7 8 7 7 7 9 7 7 8 8 8 14 11 9 9 8 8 7 7 8 11 12 12
8 8 6 4 3 12 5 4 7 5 2 4 4 4 5 4 4 4 5 6 8 9 8 8 7 9 10 8 7 12 11 14 11 10 11 11 10 8 8 8 11 12 12 13
4 10 6 11 10 5 7 4 5 4 5 5 4 6 6 5 6 7 7 8 9 9 8 7 8 11 10 8 8 12 16 13 11 7 11 12 10 9 9 10 12 12 11 11
7 5 4 2 8 17 8 9 7 5 7 6 6 7 6 7 7 7 7 7 7 7 8 7 7 10 11 10 10 12 14 11 8 12 13 11 9 9 8 8 9 11 10 11
6 4 5 8 11 12 11 10 10 11 7 5 6 7 10 8 9 8 7 8 8 8 7 6 10 11 13 12 13 12 14 8 9 12 12 11 9 10 9 10 10 11 12 13
7 10 5 12 15 11 12 7 4 6 8 10 8 7 8 8 10 7 7 8 7 9 10 9 11 11 13 13 12 12 12 7 12 12 10 9 8 8 8 10 12 19 27 28
Wind_Direction
6 66 78 22 359 277 273 93 97 129 333 343 299 6 4 40 67 72 66 65 53 45 5 10 350 340 114 129 142 151 149 167 145 122 106 75 210 199 227 212 202 191 192 218
26 74 351 309 338 38 27 66 8 50 19 21 3 317 144 88 68 85 96 73 66 38 24 14 12 16 27 91 138 143 147 146 133 120 158 158 170 188 191 199 201 204 204 212
104 256 307 63 30 48 39 69 26 242 329 341 350 332 162 57 88 71 59 81 68 71 48 26 27 20 32 42 86 149 146 145 153 164 120 67 46 35 14 247 225 223 210 212
76 350 41 62 67 38 129 341 64 22 51 232 66 270 232 186 113 81 73 63 65 64 51 46 35 34 32 20 44 86 116 142 153 136 136 150 182 201 233 222 227 228 216 218
263 22 39 64 355 357 139 45 57 72 79 53 331 72 276 143 155 154 115 94 79 67 67 64 53 41 29 32 44 54 77 84 108 134 140 167 243 254 292 304 268 247 238 233
102 340 54 38 49 50 82 58 32 46 86 17 257 125 264 193 182 161 132 99 87 72 56 54 49 45 34 21 24 30 56 63 78 104 206 234 264 296 319 314 306 284 263 251
354 30 13 20 55 357 60 54 352 356 10 223 318 31 244 226 156 151 143 112 85 76 66 61 59 53 53 45 36 37 41 34 24 25 16 350 314 296 284 283 275 288 284 260
106 331 23 351 36 246 67 139 154 203 237 261 13 237 262 140 110 115 103 103 76 69 75 73 74 71 60 55 48 47 43 33 25 22 10 359 350 320 295 283 279 271 263 262
86 298 22 46 1 70 286 37 151 96 66 46 239 289 298 165 127 120 114 96 86 70 85 86 65 83 86 64 47 42 33 16 10 1 351 352 354 349 327 312 296 283 281 274
168 8 255 278 45 29 149 288 37 357 9 285 292 278 237 224 206 202 148 155 171 242 114 35 15 19 52 64 31 15 12 8 344 346 340 326 329 332 322 321 316 306 290 278
125 102 290 47 190 182 20 336 22 124 157 181 260 262 205 218 199 183 181 186 205 228 241 270 296 309 333 12 18 355 357 352 335 331 323 323 320 324 322 315 310 307 300 293
185 139 218 227 178 147 182 197 167 130 275 235 157 268 232 250 216 181 185 203 226 221 241 259 272 286 310 313 325 328 325 325 313 308 310 308 313 318 313 300 296 300 300 300
165 321 5 339 350 348 213 205 161 144 118 218 151 263 331 347 138 222 179 216 235 250 279 278 282 282 304 314 321 318 316 305 300 298 297 296 296 297 290 289 291 295 299 297
103 201 169 198 210 158 215 204 201 160 148 207 232 271 244 239 217 227 232 231 236 251 259 269 292 274 284 297 297 303 305 282 287 296 297 294 292 288 288 288 287 291 294 293
126 217 203 265 237 221 232 176 204 200 213 200 262 222 268 210 207 211 210 220 255 263 273 254 258 287 291 294 294 289 280 291 286 294 295 289 289 288 288 287 283 280 282 284
57 270 94 285 280 280 280 236 223 234 242 248 258 275 172 327 91 156 205 213 230 246 252 258 260 267 269 264 271 283 284 287 285 288 281 281 287 290 288 289 288 282 279 276
153 132 66 265 339 340 308 221 205 212 212 217 234 250 169 230 233 205 207 194 222 235 247 248 241 241 247 253 250 256 258 267 275 268 272 273 272 278 279 279 285 283 282 281
164 107 119 260 10 193 247 203 196 218 239 224 287 250 208 205 221 224 204 196 225 234 245 240 239 246 254 248 256 250 263 263 259 266 264 268 264 265 272 277 281 283 281 272
263 138 305 212 198 298 284 161 159 181 275 212 227 213 192 143 87 287 218 200 224 222 239 241 246 246 253 260 261 240 277 258 263 261 257 259 247 254 260 267 282 288 285 285
56 90 186 64 186 234 243 181 166 117 283 286 189 164 161 138 131 246 154 174 216 234 240 253 255 252 248 262 262 240 262 272 277 277 265 258 248 245 251 257 284 290 281 281
146 242 227 222 245 282 252 218 179 92 256 172 135 161 155 184 201 198 274 259 234 232 247 254 255 246 249 257 262 273 273 256 272 275 268 264 251 245 245 258 278 289 284 283
172 174 207 181 199 279 167 67 173 215 212 169 154 177 190 228 263 272 283 277 278 277 281 278 273 270 265 255 261 274 272 266 273 268 264 268 266 260 275 274 283 285 281 280
269 202 192 182 210 231 211 225 229 196 199 212 194 216 206 224 235 249 259 263 266 263 265 265 262 272 266 261 252 268 271 276 274 261 263 267 269 262 265 275 283 286 279 277
257 173 227 42 245 254 254 252 238 234 228 219 212 210 215 235 242 240 253 260 255 255 259 258 261 267 270 263 256 253 270 271 262 265 270 272 264 263 259 265 273 275 274 274
207 98 213 261 281 292 264 257 249 259 242 228 235 220 229 231 240 237 250 247 249 249 250 251 258 261 262 265 263 265 265 265 257 264 265 269 265 266 271 265 270 270 266 263
190 234 217 258 267 253 271 253 217 200 223 223 219 245 241 225 243 234 246 247 250 257 264 263 260 259 264 266 265 260 262 242 260 268 273 270 273 273 273 281 283 271 275 275